Location: Stony Creek
(40.9500°S, 175.8500°E)
Time: 08:48:00
(UTC+00:00)

SPOT 1/Viking Rocket - Pass Details

Date: 15 May 2026
Orbit: 772 x 790 km, 98.2° (Epoch: 10 June)

Event Time Altitude Azimuth Distance (km) Brightness Sun altitude
Rises 17:51:46 0° 23° (NNE) 3,253 7.2 -16.2°
Reaches altitude 10° 17:54:04 10° 25° (NNE) 2,336 6.5 -15.8°
Maximum altitude 17:59:11 66° 106° (ESE) 862 4.0 -14.9°
Drops below altitude 10° 18:04:24 10° 187° (S) 2,378 5.8 -13.9°
Sets 18:06:45 0° 189° (S) 3,317 6.6 -13.5°
